[[{"header":{"parameterUnit":"m.s-1","parameterCategory":1,"la1":30.2991,"la2":30.254,"lo1":-89.0895,"lo2":-89.0444,"dy":0.0017,"dx":0.0017,"nx":28,"ny":28,"refTime":"2024-02-01T09:00:00:Z","depth":0,"parameterNumber":2,"parameterNumberName":"U-component_of_WINDS"},"data":[0,0,0,0,0,0,0,0,0,0,0,0,0,0,0,0,0,0,0,0,0,0,0,0,0,0,0,0,0,0,0,0,0,0,0,0,0,0,0,0,0,0,0,0,0,0,0,0,0,0,0,0,0,0,0,0,0,0,-0.3076,-0.3076,0,-0.3068,-0.3068,-0.3068,-0.306,-0.306,-0.306,-0.306,-0.3052,-0.3052,-0.3052,0,0,0,0,0,0,0,0,0,0,0,0,0,-0.3086,-0.3086,-0.3076,-0.3076,-0.3076,-0.3068,-0.3068,-0.3067,-0.306,-0.306,-0.306,-0.306,-0.3052,-0.3052,-0.3052,0,0,0,0,0,0,0,0,0,0,0,0,0,-0.308,-0.3086,-0.3076,-0.3071,-0.3071,-0.3068,-0.3068,-0.3067,-0.306,-0.306,-0.306,-0.306,-0.3052,-0.3052,-0.3052,-0.3053,0,0,-0.3051,-0.3051,0,0,0,0,0,0,0,0,-0.3081,-0.308,-0.3072,-0.3072,-0.3071,-0.3065,-0.3068,-0.3063,-0.306,-0.3064,-0.306,-0.3059,-0.3056,-0.3056,-0.3054,-0.3053,-0.3052,-0.3051,-0.3051,-0.3051,-0.3051,0,0,0,0,0,0,0,-0.3081,-0.308,-0.3073,-0.3072,-0.3071,-0.307,-0.3069,-0.3067,-0.3061,-0.3064,-0.3063,-0.3062,-0.3056,-0.3055,-0.3054,-0.3052,-0.3051,-0.3051,-0.3051,-0.3051,-0.3051,-0.3051,0,0,0,0,0,0,-0.3082,-0.3081,-0.3073,-0.3073,-0.3076,-0.3069,-0.3068,-0.3067,-0.3061,-0.306,-0.3062,-0.3062,-0.3055,-0.3054,-0.3054,-0.3055,-0.3051,-0.3051,-0.305,-0.3051,-0.3051,-0.3051,0,0,0,0,0,0,-0.3083,-0.3082,-0.3073,-0.3077,-0.3075,-0.3069,-0.3068,-0.3067,-0.3065,-0.306,-0.3059,-0.3062,-0.3055,-0.3054,-0.3053,-0.3055,-0.3051,-0.305,-0.3051,-0.3051,-0.3051,-0.3058,0,0,0,0,0,0,-0.3083,-0.3082,-0.3082,-0.3077,-0.3075,-0.3073,-0.3068,-0.3067,-0.3065,-0.3064,-0.3059,-0.3059,-0.3055,-0.3054,-0.3053,-0.3054,-0.305,-0.3051,-0.3051,-0.3051,-0.3057,-0.3058,-0.3059,0,0,0,0,0,-0.3083,-0.3085,-0.3082,-0.3081,-0.3076,-0.3073,-0.3072,-0.3067,-0.3065,-0.3066,-0.3062,-0.3059,-0.3055,-0.3054,-0.3053,-0.3054,-0.3051,-0.3051,-0.3051,-0.3057,-0.3058,-0.3059,0,0,0,0,0,0,-0.3091,-0.3084,-0.3081,-0.3081,-0.3077,-0.3072,-0.3072,-0.3069,-0.3066,-0.3066,-0.306,-0.3059,-0.3059,-0.3057,-0.3055,-0.3055,-0.3052,-0.3052,-0.3057,-0.3058,-0.3058,-0.3059,-0.305,0,0,0,0,0,-0.3093,-0.3091,-0.3085,-0.3085,-0.3084,-0.3078,-0.3077,-0.3073,-0.307,-0.3069,-0.3065,-0.3062,-0.306,-0.3059,-0.3057,-0.3057,-0.3056,-0.3058,-0.3058,-0.3059,-0.3059,-0.3059,-0.3059,-0.3052,-0.3052,-0.3052,0,0,-0.3097,-0.3092,-0.3092,-0.3087,-0.3084,-0.3082,-0.3077,-0.3076,-0.3074,-0.3068,-0.3067,-0.3064,-0.3061,-0.306,-0.306,-0.3058,-0.3061,-0.3059,-0.306,-0.306,-0.3059,-0.306,-0.306,-0.3052,-0.3052,-0.3052,0,0,-0.3102,-0.3099,-0.3098,-0.3095,-0.3091,-0.3087,-0.3087,-0.3081,-0.3079,-0.3078,-0.3073,-0.3072,-0.3068,-0.3066,-0.3064,-0.3068,-0.3065,-0.3067,-0.3071,-0.3071,-0.3071,-0.3072,-0.3073,-0.3073,-0.3068,-0.3068,-0.3068,0,-0.3107,-0.3104,-0.3099,-0.3097,-0.3095,-0.3089,-0.3089,-0.3086,-0.3081,-0.308,-0.3078,-0.3074,-0.3071,-0.307,-0.307,-0.3069,-0.3069,-0.3068,-0.3072,-0.3072,-0.3072,-0.3073,-0.3074,-0.3068,-0.3068,-0.3068,-0.3068,0,-0.311,-0.3108,-0.3109,-0.3104,-0.3102,-0.3101,-0.3095,-0.3094,-0.3091,-0.3087,-0.3086,-0.3082,-0.3079,-0.3078,-0.3075,-0.3076,-0.3075,-0.3073,-0.3069,-0.3074,-0.3074,-0.3075,-0.3068,-0.3068,-0.3068,-0.3068,0,0,-0.3121,-0.3112,-0.3113,-0.311,-0.3104,-0.3103,-0.3101,-0.3098,-0.3097,-0.3094,-0.3092,-0.3089,-0.3087,-0.3085,-0.3081,-0.3081,-0.3084,-0.3078,-0.3078,-0.3079,-0.3085,-0.3087,-0.3087,-0.3082,-0.3082,-0.3082,-0.3085,0,-0.3126,-0.3123,-0.3118,-0.3116,-0.3114,-0.3108,-0.3107,-0.3104,-0.31,-0.3098,-0.3095,-0.3093,-0.3089,-0.3088,-0.3088,-0.3084,-0.3085,-0.3084,-0.3081,-0.3081,-0.3082,-0.3088,-0.309,-0.3093,-0.3086,-0.3086,-0.3086,0,-0.313,-0.3127,-0.3125,-0.3119,-0.3118,-0.3117,-0.3113,-0.3111,-0.3107,-0.3105,-0.3102,-0.3098,-0.3097,-0.3094,-0.3092,-0.3091,-0.3089,-0.3087,-0.3087,-0.3087,-0.3083,-0.3087,-0.3094,-0.3095,-0.3086,-0.3086,-0.3086,0,-0.3138,-0.3133,-0.3131,-0.3129,-0.3122,-0.3121,-0.3119,-0.3114,-0.3112,-0.3109,-0.3107,-0.3104,-0.3102,-0.31,-0.3095,-0.3094,-0.3094,-0.309,-0.3091,-0.3092,-0.3092,-0.3092,-0.3098,-0.3091,-0.3091,-0.3091,-0.3091,0,-0.3143,-0.3143,-0.3134,-0.3133,-0.3132,-0.3126,-0.3126,-0.3122,-0.3118,-0.3116,-0.3111,-0.311,-0.3104,-0.3102,-0.3098,-0.3097,-0.3096,-0.3094,-0.3093,-0.3094,-0.3095,-0.3093,-0.3093,-0.3091,-0.3091,-0.3091,-0.3091,0,-0.3152,-0.3146,-0.3144,-0.3137,-0.3135,-0.3135,-0.3129,-0.3128,-0.3124,-0.3122,-0.3121,-0.3115,-0.3112,-0.3107,-0.3103,-0.3101,-0.31,-0.3098,-0.3101,-0.3101,-0.3102,-0.3102,-0.3108,-0.3108,-0.3101,-0.3101,-0.3101,0,-0.3155,-0.3155,-0.3147,-0.3146,-0.3143,-0.314,-0.3138,-0.3132,-0.313,-0.3125,-0.3124,-0.3121,-0.3118,-0.3113,-0.3109,-0.3106,-0.3104,-0.3106,-0.3103,-0.3105,-0.3104,-0.3104,-0.3103,-0.3107,-0.3107,-0.3107,-0.3107,0,-0.3163,-0.316,-0.3156,-0.3152,-0.3149,-0.3146,-0.3142,-0.3141,-0.3134,-0.3132,-0.3129,-0.3127,-0.3122,-0.3119,-0.3115,-0.3112,-0.3108,-0.3108,-0.3108,-0.3109,-0.3111,-0.311,-0.3103,-0.3108,-0.3108,-0.3108,-0.3108,-0.3108,-0.3169,-0.3167,-0.3162,-0.3158,-0.3155,-0.3151,-0.315,-0.3145,-0.3142,-0.3138,-0.3135,-0.3131,-0.3127,-0.3121,-0.3119,-0.3116,-0.3114,-0.3115,-0.3115,-0.3115,-0.3115,-0.3111,-0.3115,-0.3115,-0.3115,-0.3115,-0.3115,0,-0.3175,-0.3171,-0.3168,-0.3163,-0.316,-0.3156,-0.3152,-0.315,-0.3147,-0.3143,-0.314,-0.3136,-0.3132,-0.3127,-0.3124,-0.3123,-0.3121,-0.3122,-0.3122,-0.3121,-0.3117,-0.3117,-0.3123,-0.3123,-0.3123,-0.3123,-0.3123,-0.3123,-0.3178,-0.3176,-0.3172,-0.3168,-0.3164,-0.3161,-0.3158,-0.3155,-0.3152,-0.3147,-0.3144,-0.3141,-0.3136,-0.3132,-0.3129,-0.3128,-0.3127,-0.3128,-0.3126,-0.3122,-0.3122,-0.3121,-0.3121,-0.3128,-0.3128,-0.313,-0.3131,-0.3131]},{"header":{"parameterUnit":"m.s-1","parameterCategory":1,"la1":30.2991,"la2":30.254,"lo1":-89.0895,"lo2":-89.0444,"dy":0.0017,"dx":0.0017,"nx":28,"ny":28,"refTime":"2024-02-01T09:00:00:Z","depth":0,"parameterNumber":3,"parameterNumberName":"V-component_of_WINDS"},"data":[0,0,0,0,0,0,0,0,0,0,0,0,0,0,0,0,0,0,0,0,0,0,0,0,0,0,0,0,0,0,0,0,0,0,0,0,0,0,0,0,0,0,0,0,0,0,0,0,0,0,0,0,0,0,0,0,0,0,-0.3472,-0.3472,0,-0.348,-0.348,-0.348,-0.348,-0.348,-0.348,-0.348,-0.3487,-0.3487,-0.3487,0,0,0,0,0,0,0,0,0,0,0,0,0,-0.3456,-0.3457,-0.3472,-0.3472,-0.3472,-0.348,-0.348,-0.348,-0.348,-0.348,-0.348,-0.348,-0.3487,-0.3487,-0.3488,0,0,0,0,0,0,0,0,0,0,0,0,0,-0.3463,-0.3457,-0.3472,-0.3473,-0.3473,-0.348,-0.348,-0.348,-0.348,-0.348,-0.348,-0.348,-0.3487,-0.3487,-0.3488,-0.3493,0,0,-0.3489,-0.3489,0,0,0,0,0,0,0,0,-0.3463,-0.3464,-0.3473,-0.3473,-0.3473,-0.3479,-0.3477,-0.3484,-0.348,-0.3477,-0.348,-0.3479,-0.3484,-0.3485,-0.3487,-0.3493,-0.3494,-0.3489,-0.3489,-0.3489,-0.3489,0,0,0,0,0,0,0,-0.3462,-0.3464,-0.3475,-0.3473,-0.3473,-0.3473,-0.3474,-0.3478,-0.3481,-0.3478,-0.3478,-0.3479,-0.3484,-0.3486,-0.3487,-0.3494,-0.3489,-0.3489,-0.349,-0.349,-0.3506,-0.3506,0,0,0,0,0,0,-0.3462,-0.3463,-0.3475,-0.3475,-0.3468,-0.3473,-0.3474,-0.3477,-0.3481,-0.3482,-0.3479,-0.3479,-0.3486,-0.3486,-0.3487,-0.3494,-0.3489,-0.349,-0.349,-0.3506,-0.3506,-0.3506,0,0,0,0,0,0,-0.3462,-0.3463,-0.3474,-0.3469,-0.3471,-0.3474,-0.3477,-0.3477,-0.3479,-0.3482,-0.3483,-0.348,-0.3485,-0.3486,-0.3492,-0.3494,-0.349,-0.349,-0.3506,-0.3506,-0.3506,-0.3508,0,0,0,0,0,0,-0.3461,-0.3463,-0.3465,-0.3469,-0.3471,-0.3479,-0.3477,-0.3477,-0.348,-0.348,-0.3484,-0.3484,-0.3485,-0.3491,-0.3492,-0.3495,-0.3491,-0.3505,-0.3506,-0.3506,-0.3508,-0.3508,-0.3509,0,0,0,0,0,-0.3461,-0.3465,-0.3465,-0.3466,-0.3474,-0.3479,-0.348,-0.3481,-0.348,-0.3482,-0.3484,-0.3484,-0.3494,-0.3492,-0.3493,-0.3496,-0.3505,-0.3506,-0.3506,-0.3507,-0.3508,-0.3509,0,0,0,0,0,0,-0.346,-0.3465,-0.3466,-0.3471,-0.3475,-0.3479,-0.3482,-0.3482,-0.3486,-0.3485,-0.3487,-0.3488,-0.3493,-0.3495,-0.3492,-0.3501,-0.3499,-0.35,-0.35,-0.3501,-0.3501,-0.35,-0.3491,0,0,0,0,0,-0.3461,-0.3465,-0.3469,-0.3474,-0.3476,-0.3478,-0.3481,-0.3482,-0.3485,-0.3487,-0.3489,-0.3492,-0.3496,-0.3499,-0.3502,-0.3508,-0.3509,-0.3511,-0.3511,-0.3511,-0.3512,-0.3515,-0.3516,-0.3508,-0.3508,-0.3508,0,0,-0.3462,-0.3465,-0.3468,-0.3474,-0.3477,-0.3481,-0.348,-0.3484,-0.3487,-0.3487,-0.3492,-0.3494,-0.3498,-0.3504,-0.3506,-0.3505,-0.3515,-0.3512,-0.3512,-0.3512,-0.3516,-0.3517,-0.3517,-0.3508,-0.3508,-0.3508,0,0,-0.3466,-0.3469,-0.3474,-0.3477,-0.3481,-0.3483,-0.3484,-0.3489,-0.349,-0.3495,-0.3496,-0.3499,-0.3506,-0.3509,-0.3511,-0.3517,-0.3517,-0.3518,-0.3521,-0.3524,-0.3525,-0.3526,-0.3528,-0.3529,-0.3519,-0.3519,-0.3519,0,-0.3467,-0.3473,-0.3476,-0.348,-0.3483,-0.3484,-0.3489,-0.3491,-0.3497,-0.3498,-0.3497,-0.3506,-0.3508,-0.3515,-0.3517,-0.3518,-0.352,-0.3518,-0.3525,-0.3525,-0.3526,-0.3528,-0.3529,-0.3519,-0.3519,-0.3519,-0.3519,0,-0.3474,-0.3479,-0.3482,-0.3488,-0.3491,-0.3495,-0.3498,-0.3501,-0.3502,-0.3504,-0.351,-0.3513,-0.3517,-0.3519,-0.352,-0.3526,-0.3525,-0.3524,-0.3522,-0.3527,-0.3529,-0.353,-0.3519,-0.3519,-0.3519,-0.3519,0,0,-0.3478,-0.3485,-0.3486,-0.3489,-0.3495,-0.3498,-0.3503,-0.3508,-0.351,-0.3514,-0.3518,-0.3524,-0.3523,-0.3526,-0.3527,-0.353,-0.3535,-0.3529,-0.3529,-0.353,-0.3542,-0.3542,-0.3543,-0.3535,-0.3535,-0.3535,-0.3541,0,-0.3483,-0.3491,-0.3494,-0.3501,-0.3505,-0.3507,-0.3511,-0.3515,-0.3517,-0.3521,-0.3523,-0.3527,-0.3526,-0.3528,-0.3531,-0.3534,-0.3537,-0.3533,-0.3538,-0.3539,-0.3537,-0.3544,-0.3544,-0.355,-0.3542,-0.3542,-0.3542,0,-0.3489,-0.3494,-0.3502,-0.3507,-0.3509,-0.3512,-0.3517,-0.3521,-0.3526,-0.3527,-0.353,-0.3531,-0.3536,-0.3534,-0.3541,-0.3538,-0.3541,-0.3542,-0.3543,-0.3543,-0.354,-0.3544,-0.3551,-0.3552,-0.3544,-0.3544,-0.3543,0,-0.3491,-0.3499,-0.3505,-0.3507,-0.3514,-0.3516,-0.3519,-0.3523,-0.3526,-0.353,-0.3532,-0.3537,-0.354,-0.3543,-0.3545,-0.3544,-0.3552,-0.355,-0.3553,-0.3553,-0.3554,-0.3554,-0.3562,-0.3556,-0.3556,-0.3556,-0.3556,0,-0.3496,-0.3501,-0.3506,-0.3509,-0.3515,-0.3518,-0.3523,-0.3526,-0.353,-0.3534,-0.3535,-0.3539,-0.3542,-0.3546,-0.3548,-0.3553,-0.3554,-0.3555,-0.3556,-0.3555,-0.3555,-0.3556,-0.3556,-0.3557,-0.3557,-0.3557,-0.3556,0,-0.3499,-0.3502,-0.3509,-0.3515,-0.3516,-0.352,-0.3525,-0.3528,-0.3531,-0.3536,-0.3537,-0.3542,-0.3546,-0.3549,-0.3555,-0.3557,-0.3563,-0.3563,-0.3561,-0.3561,-0.3564,-0.3564,-0.3573,-0.3574,-0.3568,-0.3568,-0.3568,0,-0.3502,-0.3505,-0.3512,-0.3515,-0.3518,-0.3523,-0.3526,-0.3529,-0.3532,-0.3538,-0.3541,-0.3546,-0.355,-0.3558,-0.3561,-0.3566,-0.3566,-0.3569,-0.3567,-0.3566,-0.3566,-0.3566,-0.3566,-0.3569,-0.3569,-0.357,-0.357,0,-0.3506,-0.3508,-0.3513,-0.3519,-0.3523,-0.3527,-0.3531,-0.3534,-0.3538,-0.3541,-0.3547,-0.355,-0.3557,-0.3562,-0.3567,-0.3569,-0.357,-0.357,-0.3571,-0.357,-0.3569,-0.357,-0.3562,-0.357,-0.357,-0.357,-0.357,-0.357,-0.3509,-0.3513,-0.3518,-0.3523,-0.3527,-0.3531,-0.3535,-0.3539,-0.3543,-0.3549,-0.3551,-0.3556,-0.3561,-0.3568,-0.3571,-0.3575,-0.3575,-0.3576,-0.3576,-0.3576,-0.3576,-0.3569,-0.3576,-0.3576,-0.3576,-0.3576,-0.3576,0,-0.3514,-0.3518,-0.3523,-0.3529,-0.3533,-0.3534,-0.3539,-0.3543,-0.3548,-0.3552,-0.3557,-0.3563,-0.3568,-0.3572,-0.3577,-0.358,-0.358,-0.3581,-0.3581,-0.3581,-0.3577,-0.3575,-0.3581,-0.3581,-0.3581,-0.3581,-0.3581,-0.3581,-0.3517,-0.3523,-0.3526,-0.3534,-0.3537,-0.3543,-0.3546,-0.355,-0.3554,-0.3561,-0.3565,-0.3568,-0.3572,-0.3578,-0.3582,-0.3583,-0.3585,-0.3586,-0.3587,-0.3582,-0.3582,-0.3581,-0.358,-0.3586,-0.3586,-0.3591,-0.3591,-0.3591]}]]